Location: Newark
(44.3681°N, 100.3364°W)
Time: 15:33:00
(UTC+00:00)

SR - Pass Details

Date: 29 February 2020
Orbit: 578 x 878 km, 66.7° (Epoch: 31 March)

Event Time Altitude Azimuth Distance (km) Brightness Sun altitude
Rises 04:08:22 0° 332° (NNW) 3,307 ? -38.8°
Reaches altitude 10° 04:11:08 10° 342° (NNW) 2,323 ? -39.2°
Enters shadow 04:11:52 13° 346° (NNW) 2,077 ? -39.3°
